GW6416 Weather Reports


time (UTC)temp
C
wind
direction
speed
KPH
gust
KPH
rain 1hr
cm
rain 24hr
cm
rain mn
cm
humidity
%
barometer
mb
20260505070018 17 220 6.4 24.1 0.00 0.00 0.00 62 1010.2
20260505065507 17 192 6.4 24.1 0.00 0.00 0.00 63 1010.2
20260505065010 17 217 4.8 14.5 0.00 0.00 0.00 63 1010.2
20260505064523 17 178 4.8 12.9 0.00 0.00 0.00 64 1010.2
20260505064009 17 205 6.4 12.9 0.00 0.00 0.00 64 1010.2
20260505063507 16 178 4.8 12.9 0.00 0.00 0.00 65 1010.2
20260505063037 16 184 4.8 9.7 0.00 0.00 0.00 65 1010.2
20260505062504 16 188 4.8 11.3 0.00 0.00 0.00 65 1010.3
20260505062004 16 229 6.4 11.3 0.00 0.00 0.00 65 1010.3
20260505061508 16 214 3.2 9.7 0.00 0.00 0.00 65 1010.3
20260505061003 16 205 4.8 11.3 0.00 0.00 0.00 65 1010.3
20260505060507 16 195 4.8 12.9 0.00 0.00 0.00 65 1010.3
20260505060014 16 170 6.4 12.9 0.00 0.00 0.00 65 1010.3
20260505055507 16 199 3.2 11.3 0.00 0.00 0.00 65 1010.3
20260505055008 16 205 4.8 11.3 0.00 0.00 0.00 66 1010.4
20260505054524 16 165 3.2 11.3 0.00 0.00 0.00 65 1010.4
20260505054012 16 207 4.8 11.3 0.00 0.00 0.00 65 1010.4
20260505053512 16 196 3.2 11.3 0.00 0.00 0.00 64 1010.5
20260505053023 16 202 1.6 11.3 0.00 0.00 0.00 64 1010.5
20260505052507 16 259 3.2 8.0 0.00 0.00 0.00 64 1010.4
20260505052009 16 190 4.8 8.0 0.00 0.00 0.00 64 1010.4
20260505051506 16 185 4.8 6.4 0.00 0.00 0.00 64 1010.5
20260505051005 16 189 3.2 8.0 0.00 0.00 0.00 64 1010.5
20260505050503 17 198 3.2 8.0 0.00 0.00 0.00 63 1010.4
20260505041542 16 190 1.6 4.8 0.00 0.00 0.00 63 1010.2
20260505041007 16 179 1.6 6.4 0.00 0.00 0.00 63 1010.2
20260505040509 16 197 1.6 8.0 0.00 0.00 0.00 64 1010.2
20260505040009 17 175 1.6 8.0 0.00 0.00 0.00 63 1010.2
20260505035505 17 190 3.2 9.7 0.00 0.00 0.00 63 1010.1
20260505035007 17 194 3.2 9.7 0.00 0.00 0.00 63 1010.1
20260505034515 17 204 3.2 9.7 0.00 0.00 0.00 63 1010.1
20260505034004 17 198 4.8 9.7 0.00 0.00 0.00 63 1010.1
20260505033505 17 163 4.8 9.7 0.00 0.00 0.00 63 1010.0
20260505033023 17 201 4.8 11.3 0.00 0.00 0.00 63 1010.1
20260505032512 17 221 3.2 11.3 0.00 0.00 0.00 63 1010.1
20260505032008 17 184 4.8 8.0 0.00 0.00 0.00 63 1010.2
20260505031531 16 184 3.2 11.3 0.00 0.00 0.00 63 1010.0
20260505031008 17 209 3.2 11.3 0.00 0.00 0.00 63 1009.9
20260505030508 16 184 3.2 8.0 0.00 0.00 0.00 62 1009.9
20260505030028 17 201 3.2 11.3 0.00 0.00 0.00 62 1010.0
20260505025514 16 167 3.2 11.3 0.00 0.00 0.00 61 1010.0
20260505025006 17 207 3.2 9.7 0.00 0.00 0.00 60 1010.0
20260505024515 17 190 3.2 9.7 0.00 0.00 0.00 59 1010.1
20260505024006 17 157 1.6 9.7 0.00 0.00 0.00 58 1010.2
20260505023504 17 187 3.2 9.7 0.00 0.00 0.00 56 1010.2
20260505023018 17 183 3.2 12.9 0.00 0.00 0.00 55 1010.2
20260505022507 17 180 6.4 12.9 0.00 0.00 0.00 54 1010.2
20260505022010 17 174 8.0 12.9 0.00 0.00 0.00 53 1010.1
20260505021522 17 181 4.8 11.3 0.00 0.00 0.00 51 1010.0
20260505021007 17 184 6.4 11.3 0.00 0.00 0.00 51 1010.0
20260505020509 17 205 4.8 11.3 0.00 0.00 0.00 50 1010.0
20260505020026 18 188 4.8 12.9 0.00 0.00 0.00 49 1010.0
20260505015508 18 182 4.8 11.3 0.00 0.00 0.00 49 1009.9
20260505015008 18 192 6.4 11.3 0.00 0.00 0.00 49 1010.0
20260505014529 18 199 4.8 11.3 0.00 0.00 0.00 49 1010.0
20260505014006 18 210 4.8 11.3 0.00 0.00 0.00 48 1010.0
20260505013506 18 163 3.2 11.3 0.00 0.00 0.00 47 1010.0
20260505013013 18 190 4.8 9.7 0.00 0.00 0.00 47 1010.0
20260505012505 18 173 3.2 9.7 0.00 0.00 0.00 47 1010.0
20260505012008 18 195 3.2 9.7 0.00 0.00 0.00 47 1009.9
20260505011520 18 229 3.2 9.7 0.00 0.00 0.00 47 1009.9
20260505011005 18 192 3.2 8.0 0.00 0.00 0.00 47 1009.8
20260505010508 18 200 4.8 8.0 0.00 0.00 0.00 47 1009.8
20260505010023 18 198 3.2 11.3 0.00 0.00 0.00 46 1009.8
20260505005508 18 255 4.8 11.3 0.00 0.00 0.00 46 1009.8
20260505005009 18 192 4.8 9.7 0.00 0.00 0.00 45 1009.7
20260505004525 18 145 4.8 11.3 0.00 0.00 0.00 45 1009.7
20260505004008 18 191 3.2 11.3 0.00 0.00 0.00 45 1009.7
20260505003508 19 226 4.8 14.5 0.00 0.00 0.00 44 1009.6
20260505003012 19 182 3.2 14.5 0.00 0.00 0.00 44 1009.6
20260505002504 19 184 4.8 14.5 0.00 0.00 0.00 44 1009.6
20260505002007 19 210 4.8 14.5 0.00 0.00 0.00 43 1009.6
20260505001520 19 194 3.2 11.3 0.00 0.00 0.00 43 1009.5
20260505001007 19 190 3.2 11.3 0.00 0.00 0.00 43 1009.6
20260505000508 19 172 3.2 11.3 0.00 0.00 0.00 43 1009.6
20260505000023 20 173 3.2 11.3 0.00 0.00 0.00 42 1009.6
20260504235510 20 242 3.2 9.7 0.00 0.00 0.00 42 1009.7
20260504235011 20 185 3.2 9.7 0.00 0.00 0.00 41 1009.6
20260504234528 20 195 3.2 12.9 0.00 0.00 0.00 42 1009.6
20260504234010 20 202 4.8 16.1 0.00 0.00 0.00 41 1009.6
20260504233508 20 202 6.4 16.1 0.00 0.00 0.00 40 1009.6
20260504233026 20 197 6.4 19.3 0.00 0.00 0.00 40 1009.4
20260504232512 21 180 4.8 24.1 0.00 0.00 0.00 40 1009.5
20260504232010 21 186 6.4 24.1 0.00 0.00 0.00 39 1009.6
20260504231515 21 189 8.0 20.9 0.00 0.00 0.00 39 1009.5
20260504231007 21 206 6.4 20.9 0.00 0.00 0.00 39 1009.5
20260504230507 21 155 9.7 16.1 0.00 0.00 0.00 38 1009.5
20260504230022 21 185 4.8 14.5 0.00 0.00 0.00 39 1009.5
20260504225510 22 175 6.4 17.7 0.00 0.00 0.00 37 1009.5
20260504225009 22 184 9.7 17.7 0.00 0.00 0.00 36 1009.4
20260504224531 22 227 3.2 17.7 0.00 0.00 0.00 35 1009.4
20260504224006 22 194 9.7 17.7 0.00 0.00 0.00 34 1009.3
20260504223511 22 232 8.0 20.9 0.00 0.00 0.00 34 1009.4
20260504223030 22 250 8.0 22.5 0.00 0.00 0.00 34 1009.3
20260504222510 22 198 9.7 22.5 0.00 0.00 0.00 33 1009.3
20260504222009 22 211 4.8 17.7 0.00 0.00 0.00 34 1009.2
20260504221526 23 188 4.8 20.9 0.00 0.00 0.00 34 1009.2
20260504221009 23 244 9.7 20.9 0.00 0.00 0.00 32 1009.2
20260504220507 23 227 8.0 20.9 0.00 0.00 0.00 36 1009.2
20260504220018 23 179 9.7 20.9 0.00 0.00 0.00 33 1009.3
20260504215512 23 240 4.8 27.4 0.00 0.00 0.00 33 1009.4
20260504215011 23 216 8.0 27.4 0.00 0.00 0.00 32 1009.4
20260504214535 23 213 9.7 22.5 0.00 0.00 0.00 33 1009.3
20260504214014 23 204 11.3 22.5 0.00 0.00 0.00 32 1009.4
20260504213510 23 268 9.7 22.5 0.00 0.00 0.00 34 1009.3
20260504213028 23 171 4.8 12.9 0.00 0.00 0.00 33 1009.4
20260504212512 23 222 4.8 12.9 0.00 0.00 0.00 33 1009.4
20260504212013 23 234 6.4 19.3 0.00 0.00 0.00 33 1009.4
20260504211530 23 232 9.7 19.3 0.00 0.00 0.00 33 1009.4
20260504211010 23 221 11.3 20.9 0.00 0.00 0.00 32 1009.4
20260504210517 23 182 8.0 20.9 0.00 0.00 0.00 33 1009.4
20260504210030 23 223 9.7 19.3 0.00 0.00 0.00 32 1009.5
20260504205507 23 150 6.4 17.7 0.00 0.00 0.00 34 1009.6
20260504205008 23 234 6.4 22.5 0.00 0.00 0.00 35 1009.5
20260504204522 23 303 8.0 22.5 0.00 0.00 0.00 33 1009.6
20260504204006 23 219 6.4 19.3 0.00 0.00 0.00 33 1009.6
20260504203509 23 264 6.4 16.1 0.00 0.00 0.00 32 1009.7
20260504203024 23 184 8.0 17.7 0.00 0.00 0.00 33 1009.8
20260504202508 23 204 6.4 17.7 0.00 0.00 0.00 33 1009.9
20260504202013 23 161 8.0 19.3 0.00 0.00 0.00 32 1010.0
20260504201526 23 258 4.8 20.9 0.00 0.00 0.00 34 1010.1
20260504201013 23 171 8.0 20.9 0.00 0.00 0.00 33 1010.2
20260504200511 23 216 9.7 19.3 0.00 0.00 0.00 32 1010.3
20260504200035 23 147 6.4 12.9 0.00 0.00 0.00 33 1010.3
20260504195507 23 189 6.4 19.3 0.00 0.00 0.00 34 1010.4
20260504195007 23 238 8.0 20.9 0.00 0.00 0.00 32 1010.6
20260504194519 23 245 9.7 20.9 0.00 0.00 0.00 33 1010.7
20260504194007 23 213 9.7 22.5 0.00 0.00 0.00 33 1010.9
20260504193514 22 174 11.3 22.5 0.00 0.00 0.00 34 1010.8
20260504193026 22 204 11.3 17.7 0.00 0.00 0.00 34 1010.9
20260504192514 22 184 11.3 17.7 0.00 0.00 0.00 33 1010.9
20260504192010 23 202 6.4 16.1 0.00 0.00 0.00 32 1010.9
20260504191526 23 194 6.4 17.7 0.00 0.00 0.00 35 1010.9
20260504191013 22 285 8.0 17.7 0.00 0.00 0.00 36 1011.0
20260504190511 22 184 8.0 22.5 0.00 0.00 0.00 33 1011.0
20260504190028 22 221 8.0 22.5 0.00 0.00 0.00 33 1011.1
20260504185510 22 146 6.4 22.5 0.00 0.00 0.00 33 1011.1
20260504185009 22 121 11.3 20.9 0.00 0.00 0.00 33 1011.2
20260504184536 22 205 6.4 17.7 0.00 0.00 0.00 35 1011.2
20260504184009 22 191 6.4 19.3 0.00 0.00 0.00 37 1011.3
20260504183512 22 211 8.0 19.3 0.00 0.00 0.00 34 1011.3
20260504183031 22 173 8.0 17.7 0.00 0.00 0.00 34 1011.4
20260504182508 22 225 6.4 17.7 0.00 0.00 0.00 33 1011.5
20260504182016 22 223 8.0 16.1 0.00 0.00 0.00 32 1011.7
20260504181526 22 192 8.0 16.1 0.00 0.00 0.00 32 1011.7
20260504181010 22 200 4.8 16.1 0.00 0.00 0.00 32 1011.9
20260504180507 22 212 8.0 19.3 0.00 0.00 0.00 32 1012.0
20260504180027 22 157 9.7 19.3 0.00 0.00 0.00 35 1012.0
20260504175507 22 205 6.4 17.7 0.00 0.00 0.00 33 1012.0
20260504175011 22 273 4.8 19.3 0.00 0.00 0.00 34 1012.0
20260504174528 22 190 11.3 19.3 0.00 0.00 0.00 34 1011.9
20260504174010 22 198 6.4 17.7 0.00 0.00 0.00 35 1012.0
20260504173512 22 194 6.4 17.7 0.00 0.00 0.00 34 1011.9
20260504173021 22 197 8.0 17.7 0.00 0.00 0.00 33 1012.0
20260504172512 22 159 6.4 17.7 0.00 0.00 0.00 34 1012.1
20260504172011 22 261 8.0 17.7 0.00 0.00 0.00 35 1012.0
20260504171525 21 178 9.7 16.1 0.00 0.00 0.00 34 1012.1
20260504171004 21 195 4.8 16.1 0.00 0.00 0.00 38 1012.1
20260504170503 21 202 8.0 16.1 0.00 0.00 0.00 35 1012.3
20260504151007 18 186 1.6 14.5 0.00 0.00 0.00 51 1013.6
20260504150510 18 221 3.2 12.9 0.00 0.00 0.00 48 1013.6
20260504141013 16 258 6.4 19.3 0.00 0.00 0.00 53 1013.7
20260504140503 16 183 4.8 14.5 0.00 0.00 0.00 53 1013.8
20260504130507 15 229 6.4 19.3 0.00 0.00 0.00 57 1014.1
20260504110506 12 190 6.4 11.3 0.00 0.00 0.00 69 1014.5
20260504100505 11 183 1.6 8.0 0.00 0.00 0.00 77 1014.4
20260504081529 11 183 3.2 6.4 0.00 0.00 0.00 76 1014.9
20260504081009 11 188 3.2 6.4 0.00 0.00 0.00 76 1015.0
20260504080517 11 201 1.6 8.0 0.00 0.00 0.00 76 1015.0